
    C/2007 N3 (Lulin)
Epoch 2009 Jan. 9.0 TT = JDT 2454840.5  
T 2009 Jan. 10.64041 TT                                 Nakano
q   1.2122639            (2000.0)            P               Q
z  +0.0000163      Peri.  136.86670     -0.92920662     -0.36941471
 +/-0.0000009      Node   338.53959     -0.34631637     +0.86061079
e   0.9999802      Incl.  178.37359     -0.12899622     +0.35054505
From 1521 observations 2007 July 11-2008 Dec. 23, mean residual 0".45.
   (1/a)org.= +0.000021, (1/a)fut.= +0.000817 (+/-0.000001), Q= 8.
   The comet has passed 2.46 AU from Jupiter on 2008 June 24 and
   0.099 AU from Mars on 2008 Nov. 22 UT.  The comet will pass 0.41 AU
   from the Earth on 2009 Feb. 24 UT.

NAKANO
         **** Don't distribute anyone except personal use only ****
                (C) Copyright 2009 OAA/ComputingSection
write mail from CFAD0::NAKANO on 2009-01-06 06:55:26(JST).
 
◎C/2007 N3の軌道と予報位置

 上尾の門田健一氏が12月15日早朝に明け方の低空にあるこの彗星の観測に成功
した後,12月19日に八束(安部裕史),サントピアマリーナ(中野),12月20日
に上尾,平塚(杉山行浩),12月23日にサントピアマリーナから彗星の位置観測
が報告されました.彗星のCCD全光度は,12月15日に8.8等(門田),19日に8.8等
(安部),8.0等(中野),20日に8.6等(門田),23日に7.7等(中野)でした.
ゴンザレスによると,12月21日の眼視全光度は7.6等とのことです.

    C/2007 N3 (Lulin)
Epoch 2009 Jan. 9.0 TT = JDT 2454840.5  
T 2009 Jan. 10.64041 TT                                 Nakano
q   1.2122639            (2000.0)            P               Q
z  +0.0000163      Peri.  136.86670     -0.92920662     -0.36941471
 +/-0.0000009      Node   338.53959     -0.34631637     +0.86061079
e   0.9999802      Incl.  178.37359     -0.12899622     +0.35054505
From 1521 observations 2007 July 11-2008 Dec. 23, mean residual 0".45.
   (1/a)org.= +0.000021, (1/a)fut.= +0.000817 (+/-0.000001), Q= 8.
   The comet has passed 2.46 AU from Jupiter on 2008 June 24 and
   0.099 AU from Mars on 2008 Nov. 22 UT.  The comet will pass 0.41 AU
   from the Earth on 2009 Feb. 24 UT.

2008/2009    α  (2000) δ      △      r    Daily motion  Elong. Phase    m1   天文薄明開始時
 30h JST    h  m       。  ,        AU      AU      ,     。     。      。      等     h。    A 。 
Dec. 20   16 04.91  -19 53.9    2.060   1.255     5.1/280    26.2   20.2    6.3    +5.1  298.9
     21   16 04.56  -19 53.0    2.041   1.251     5.3/280    27.3   21.1    6.3    +5.9  299.6
     22   16 04.19  -19 52.1    2.022   1.247     5.5/280    28.4   22.0    6.3    +6.8  300.4
     23   16 03.80  -19 51.2    2.002   1.244     5.8/280    29.5   22.9    6.2    +7.6  301.1
     24   16 03.40  -19 50.2    1.981   1.240     6.0/280    30.6   23.8    6.2    +8.5  301.9
     25   16 02.98  -19 49.1    1.960   1.237     6.3/280    31.7   24.7    6.1    +9.3  302.6
     26   16 02.54  -19 48.0    1.939   1.234     6.6/280    32.8   25.6    6.1   +10.2  303.4
     27   16 02.08  -19 46.8    1.917   1.231     6.9/280    34.0   26.5    6.1   +11.0  304.2
     28   16 01.60  -19 45.6    1.895   1.229     7.2/280    35.1   27.4    6.0   +11.8  305.0
     29   16 01.09  -19 44.2    1.873   1.226     7.6/281    36.2   28.3    6.0   +12.6  305.8
     30   16 00.56  -19 42.8    1.850   1.224     7.9/281    37.4   29.2    5.9   +13.4  306.6
     31   16 00.01  -19 41.4    1.826   1.222     8.3/281    38.5   30.1    5.9   +14.2  307.4
Jan.  1   15 59.43  -19 39.8    1.802   1.220     8.7/281    39.7   31.0    5.9   +15.0  308.2
      2   15 58.83  -19 38.2    1.778   1.218     9.2/281    40.9   31.9    5.8   +15.8  309.1
      3   15 58.19  -19 36.4    1.754   1.217     9.6/281    42.0   32.8    5.8   +16.6  309.9
      4   15 57.52  -19 34.6    1.729   1.216    10.1/281    43.2   33.6    5.7   +17.3  310.8
      5   15 56.82  -19 32.6    1.703   1.215    10.6/281    44.4   34.5    5.7   +18.1  311.7
      6   15 56.08  -19 30.6    1.678   1.214    11.2/281    45.6   35.4    5.7   +18.8  312.6
      7   15 55.31  -19 28.4    1.652   1.213    11.7/281    46.8   36.2    5.6   +19.6  313.5
      8   15 54.49  -19 26.1    1.625   1.213    12.4/281    48.0   37.1    5.6   +20.3  314.4
      9   15 53.64  -19 23.6    1.599   1.212    13.0/282    49.2   37.9    5.6   +21.1  315.4
     10   15 52.73  -19 21.0    1.571   1.212    13.7/282    50.5   38.7    5.5   +21.8  316.3
     11   15 51.78  -19 18.2    1.544   1.212    14.5/282    51.7   39.6    5.5   +22.5  317.3
     12   15 50.78  -19 15.3    1.516   1.213    15.3/282    53.0   40.4    5.4   +23.2  318.3
     13   15 49.73  -19 12.1    1.488   1.213    16.1/282    54.3   41.1    5.4   +23.9  319.3
     14   15 48.61  -19 08.8    1.460   1.214    17.1/282    55.5   41.9    5.4   +24.6  320.4
     15   15 47.44  -19 05.2    1.431   1.215    18.0/282    56.8   42.7    5.3   +25.3  321.4
     16   15 46.19  -19 01.4    1.402   1.216    19.1/282    58.2   43.4    5.3   +26.0  322.5
     17   15 44.88  -18 57.3    1.373   1.218    20.3/282    59.5   44.1    5.3   +26.7  323.6
     18   15 43.48  -18 53.0    1.344   1.219    21.5/283    60.9   44.8    5.2   +27.3  324.7
     19   15 42.00  -18 48.3    1.314   1.221    22.8/283    62.2   45.5    5.2   +28.0  325.9
     20   15 40.43  -18 43.3    1.284   1.223    24.3/283    63.6   46.1    5.1   +28.7  327.1
     21   15 38.77  -18 37.9    1.254   1.225    25.9/283    65.1   46.8    5.1   +29.3  328.3
     22   15 36.99  -18 32.0    1.224   1.227    27.6/283    66.5   47.4    5.1   +30.0  329.6
     23   15 35.10  -18 25.7    1.193   1.230    29.4/283    68.0   47.9    5.0   +30.6  330.9
     24   15 33.09  -18 19.0    1.163   1.232    31.5/283    69.5   48.4    5.0   +31.3  332.3
     25   15 30.94  -18 11.6    1.132   1.235    33.7/284    71.0   48.9    4.9   +31.9  333.7
     26   15 28.65  -18 03.6    1.101   1.238    36.1/284    72.6   49.4    4.9   +32.6  335.1
     27   15 26.19  -17 55.0    1.070   1.242    38.8/284    74.2   49.8    4.9   +33.2  336.6
     28   15 23.56  -17 45.6    1.039   1.245    41.7/284    75.9   50.1    4.8   +33.8  338.2
     29   15 20.73  -17 35.3    1.008   1.249    44.9/284    77.6   50.4    4.8   +34.4  339.9
     30   15 17.69  -17 24.0    0.976   1.253    48.4/285    79.4   50.6    4.7   +35.0  341.6
     31   15 14.43  -17 11.7    0.945   1.257    52.3/285    81.2   50.8    4.7   +35.6  343.4
                    m1 =  3.2 + 5 log △ + 16.0 log rNAKANO
         **** Don't distribute anyone except personal use only ****
                (C) Copyright 2008 OAA/ComputingSection
write mail from CFAD0::NAKANO on 2008-12-25 04:50:52(JST).

    C/2007 N3 (Lulin)
Epoch 2009 Jan. 9.0 TT = JDT 2454840.5  
T 2009 Jan. 10.64051 TT                                 Nakano
q   1.2122630            (2000.0)            P               Q
z  +0.0000174      Peri.  136.86675     -0.92920710     -0.36941350
 +/-0.0000010      Node   338.53957     -0.34631526     +0.86061124
e   0.9999789      Incl.  178.37359     -0.12899575     +0.35054522
From 1508 observations 2007 July 11-2008 Dec. 14, mean residual 0".45.
   (1/a)org.= +0.000022, (1/a)fut.= +0.000818 (+/-0.000001), Q= 8.
   The comet has passed 2.46 AU from Jupiter on 2008 June 24 and
   0.099 AU from Mars on 2008 Nov. 22 UT.  The comet will pass 0.41 AU
   from the Earth on 2009 Feb. 24 UT.
NAKANO
         **** Don't distribute anyone except personal use only ****
                (C) Copyright 2008 OAA/ComputingSection
write mail from CFAD0::NAKANO on 2008-12-18 03:31:09(JST).
 




    C/2007 N3 (Lulin)

Epoch 2009 Jan. 9.0 TT = JDT 2454840.5  

T 2009 Jan. 10.64056 TT                                 Nakano

q   1.2122627            (2000.0)            P               Q

z  +0.0000178      Peri.  136.86681     -0.92920729     -0.36941302

 +/-0.0000010      Node   338.53960     -0.34631480     +0.86061142

e   0.9999784      Incl.  178.37359     -0.12899559     +0.35054529

From 1503 observations 2007 July 11-2008 Nov. 1, mean residual 0".45.

   (1/a)org.= +0.000023, (1/a)fut.= +0.000819 (+/-0.000001), Q= 8.

   The comet has passed 2.46 AU from Jupiter on 2008 June 24 and will

   pass 0.099 AU from Mars and 0.41 AU from Earth on 2008 Nov. 22 and

   2009 Feb. 24 UT, respectively.



NAKANO

         **** Don't distribute anyone except personal use only ****

                (C) Copyright 2008 OAA/ComputingSection

write mail from CFAD0::NAKANO on 2008-11-05 05:02:00(JST).

 



    C/2007 N3 (Lulin)

Epoch 2009 Jan. 9.0 TT = JDT 2454840.5  

T 2009 Jan. 10.64071 TT                                 Nakano

q   1.2122664            (2000.0)            P               Q

z  +0.0000166      Peri.  136.86601     -0.92920635     -0.36941537

 +/-0.0000011      Node   338.53894     -0.34631734     +0.86061076

e   0.9999799      Incl.  178.37353     -0.12899557     +0.35054444

From 893 observations 2007 July 11-2008 July 30, mean residual 0".45.

   (1/a)org.= +0.000022, (1/a)fut.= +0.000818 (+/-0.000001), Q= 8.

   The comet has passed 2.46 AU from Jupiter on 2008 June 24 and will pass

   0.099 AU from Mars and 0.41 AU from Earth on 2008 Nov. 22 and 2009

   Feb. 24 UT, respectively.



NAKANO

         **** Don't distribute anyone except personal use only ****

                (C) Copyright 2008 OAA/ComputingSection

write mail from CFAD0::NAKANO on 2008-08-02 06:17:22(JST).

C/2007 N3の軌道と予報位置    [From YC 2589]



ルーリン彗星  C/2007 N3 (Lulin)

    彗星のCCD全光度が5月31日に13.7等(門田),6月6日に14.2等(安部),

9日に13.4等,16日に13.2等(門田),眼視全光度は,6月下旬に10等級まで明る

くなっているらしい.

    OAA計算課では,2007年7月11日から2008年6月24日までに行なわれた538個

の観測から次の軌道を計算した(http://www.oaa.gr.jp/~oaacs/nk/nk1631r.htm).

軌道改良に使用した最終観測は,守山の井狩康一氏(Y. Ikari, Moriyama)よる

もの.彗星は,よく集光しており,このまま順調に成長すれば,その近日点通過

後の2009年2月24日に地球に0.41 AUまで接近し,その頃,衝位置となり,4等級

まで明るくなるだろう(cf. YC 2563).



           Epoch = 2009 Jan. 9.0 TT    。

 T = 2009 Jan. 10.64365 TT    ω = 136.86443               (1/a)org.= +0.000024

 e =   0.9999764              Ω = 338.53748   (2000.0)    (1/a)fut.= +0.000821

 q =   1.2122803 AU           i = 178.37334                          ( Q = 7 )





New version orbit:

  CCD全光度は,6月30日に12.5等(門田),7月2日に12.7等(シェロード;

ASO)と観測されている.



    C/2007 N3 (Lulin)

Epoch 2009 Jan. 9.0 TT = JDT 2454840.5  

